Weather History for Albion, NE

Change the Weather History Date:

Monday, November 4, 2013

  Actual Average (KOFK) Record (KOFK)
Temperature  
Mean Temperature 40 °F 43 °F  
Max Temperature 52 °F 54 °F 83 °F (1909)
Min Temperature 27 °F 31 °F -9 °F (1991)
Degree Days  
Heating Degree Days 26 22  
Month to date heating degree days 86  
Since 1 July heating degree days 671  
Cooling Degree Days 0 0  
Month to date cooling degree days 0  
Year to date cooling degree days 915  
Moisture  
Dew Point 30 °F    
Average Humidity 66    
Maximum Humidity 91    
Minimum Humidity 37    
Precipitation  
Precipitation 0.00 in 0.05 in 0.61 in (1925)
Month to date precipitation 0.20  
Year to date precipitation 25.49  
Snow  
Snow 0.00 in 0.10 in - ()
Month to date snowfall 0.4  
Since 1 July snowfall 1.2  
Snow Depth -    
Sea Level Pressure  
Sea Level Pressure 29.95 in    
Wind  
Wind Speed 7 mph (NNW)    
Max Wind Speed 20 mph    
Max Gust Speed 25 mph    
Visibility 10 miles    
Events      
T = Trace of Precipitation, MM = Missing Value Source: NWS Daily Summary

Daily Weather History Graph

Daily Weather History Graph

Search for Another Location

Airport:

Trip Planner

Search our weather history database for the weather conditions in past years. The results will help you decide how hot, cold, wet, or windy it might be!

Date:

Astronomy

Nov. 04, 2013 Rise Set
Actual Time 7:08 AM CST 5:22 PM CST
Civil Twilight 6:39 AM CST 5:51 PM CST
Nautical Twilight 6:06 AM CST 6:24 PM CST
Astronomical Twilight 5:33 AM CST 6:57 PM CST
Moon 8:21 AM CST (11/4) 6:27 PM CST (11/4)
Length of Visible Light 11h 12m
Length of Day
10h 14m
New Moon, 2% of the Moon is Illuminated
Nov 4
New Moon
Nov 9
First Quarter
Nov 17
Full
Nov 25
Last Quarter
Dec 2
New

Hourly Weather History & Observations

Time (CST) Temp. Windchill Dew Point Humidity Pressure Visibility Wind Dir Wind Speed Gust Speed Precip Events Conditions
12:15 AM 46.2 °F 42.7 °F 35.8 °F 67% 29.70 in 10.0 mi SSE 6.9 mph - N/A   Mostly Cloudy
12:35 AM 45.0 °F 41.2 °F 35.6 °F 70% 29.70 in 10.0 mi SSE 6.9 mph - N/A   Mostly Cloudy
12:55 AM 45.3 °F 42.3 °F 35.8 °F 69% 29.70 in 10.0 mi SSE 5.8 mph - N/A   Mostly Cloudy
1:15 AM 44.6 °F 42.2 °F 35.6 °F 71% 29.71 in 10.0 mi SSE 4.6 mph - N/A   Scattered Clouds
1:35 AM 41.5 °F 37.8 °F 34.2 °F 75% 29.72 in 10.0 mi WNW 5.8 mph - N/A   Scattered Clouds
1:55 AM 40.1 °F 38.0 °F 34.5 °F 80% 29.72 in 10.0 mi NNW 3.5 mph - N/A   Scattered Clouds
2:15 AM 40.6 °F - 34.5 °F 79% 29.72 in 10.0 mi Calm Calm - N/A   Scattered Clouds
2:35 AM 39.7 °F - 32.7 °F 76% 29.72 in 10.0 mi Calm Calm - N/A   Clear
2:55 AM 35.2 °F - 31.8 °F 87% 29.73 in 10.0 mi Calm Calm - N/A   Clear
3:15 AM 35.2 °F 32.4 °F 31.8 °F 87% 29.74 in 10.0 mi NNW 3.5 mph - N/A   Clear
3:35 AM 34.0 °F 28.8 °F 31.6 °F 91% 29.74 in 10.0 mi NW 5.8 mph - N/A   Clear
3:55 AM 35.2 °F 31.2 °F 32.4 °F 89% 29.74 in 10.0 mi NNW 4.6 mph - N/A   Clear
4:15 AM 36.5 °F 31.0 °F 32.9 °F 87% 29.76 in 10.0 mi NW 6.9 mph - N/A   Clear
4:35 AM 37.6 °F 32.3 °F 33.8 °F 86% 29.77 in 10.0 mi NW 6.9 mph - N/A   Scattered Clouds
4:55 AM 39.2 °F 33.6 °F 34.5 °F 83% 29.78 in 10.0 mi NNW 8.1 mph - N/A   Scattered Clouds
5:15 AM 39.7 °F 36.5 °F 34.2 °F 80% 29.80 in 10.0 mi NW 4.6 mph - N/A   Mostly Cloudy
5:35 AM 40.1 °F 35.3 °F 34.7 °F 81% 29.82 in 10.0 mi NNW 6.9 mph - N/A   Overcast
5:55 AM 40.6 °F 34.8 °F 34.7 °F 79% 29.80 in 10.0 mi NNW 9.2 mph - N/A   Overcast
6:15 AM 40.5 °F 36.5 °F 34.7 °F 80% 29.82 in 10.0 mi NW 5.8 mph - N/A   Overcast
6:35 AM 41.2 °F 35.0 °F 34.7 °F 78% 29.81 in 10.0 mi NNW 10.4 mph - N/A   Mostly Cloudy
6:55 AM 41.4 °F 36.2 °F 34.3 °F 76% 29.81 in 10.0 mi NNW 8.1 mph - N/A   Mostly Cloudy
7:15 AM 41.2 °F 34.5 °F 33.3 °F 73% 29.83 in 10.0 mi NNW 11.5 mph 16.1 mph N/A   Scattered Clouds
7:35 AM 42.8 °F 36.6 °F 32.7 °F 68% 29.86 in 10.0 mi NNW 11.5 mph - N/A   Mostly Cloudy
7:55 AM 44.2 °F 38.4 °F 31.8 °F 62% 29.87 in 10.0 mi NNW 11.5 mph 21.9 mph N/A   Overcast
8:15 AM 44.2 °F 37.3 °F 32.0 °F 62% 29.89 in 10.0 mi NNW 15.0 mph 21.9 mph N/A   Overcast
8:35 AM 44.6 °F 38.1 °F 32.0 °F 61% 29.92 in 10.0 mi NNW 13.8 mph 19.6 mph N/A   Overcast
8:55 AM 45.0 °F 38.2 °F 32.0 °F 60% 29.92 in 10.0 mi NNW 15.0 mph 21.9 mph N/A   Overcast
9:15 AM 45.1 °F 37.9 °F 33.1 °F 63% 29.94 in 10.0 mi NNW 17.3 mph 23.0 mph N/A   Overcast
9:35 AM 45.0 °F 37.6 °F 33.4 °F 64% 29.95 in 10.0 mi NNW 17.3 mph 25.3 mph N/A   Scattered Clouds
9:55 AM 46.6 °F - 34.3 °F 62% 29.96 in 10.0 mi NNW 16.1 mph 23.0 mph N/A   Clear
10:15 AM 48.2 °F - 34.5 °F 59% 29.97 in 10.0 mi NNW 17.3 mph 23.0 mph N/A   Clear
10:35 AM 48.0 °F - 34.9 °F 60% 29.98 in 10.0 mi NNW 16.1 mph 24.2 mph N/A   Clear
10:55 AM 48.7 °F - 34.3 °F 58% 29.99 in 10.0 mi North 16.1 mph 24.2 mph N/A   Mostly Cloudy
11:15 AM 48.6 °F - 32.0 °F 53% 30.00 in 10.0 mi NNW 13.8 mph 21.9 mph N/A   Overcast
11:35 AM 49.5 °F - 32.2 °F 51% 30.01 in 10.0 mi NNW 19.6 mph 24.2 mph N/A   Scattered Clouds
11:55 AM 49.6 °F - 32.0 °F 51% 30.01 in 10.0 mi North 12.7 mph 23.0 mph N/A   Scattered Clouds
12:15 PM 50.0 °F - 31.5 °F 49% 30.00 in 10.0 mi NNW 11.5 mph 18.4 mph N/A   Mostly Cloudy
12:35 PM 50.5 °F - 31.6 °F 48% 30.00 in 10.0 mi North 12.7 mph - N/A   Mostly Cloudy
12:55 PM 51.3 °F - 31.3 °F 46% 30.00 in 10.0 mi North 10.4 mph 20.7 mph N/A   Scattered Clouds
1:15 PM 50.7 °F - 30.2 °F 45% 30.01 in 10.0 mi NNW 15.0 mph 19.6 mph N/A   Mostly Cloudy
1:35 PM 52.0 °F - 30.6 °F 44% 30.00 in 10.0 mi NNW 10.4 mph 17.3 mph N/A   Scattered Clouds
1:55 PM 52.5 °F - 29.3 °F 41% 30.00 in 10.0 mi NNW 11.5 mph 17.3 mph N/A   Clear
2:15 PM 52.7 °F - 28.2 °F 39% 30.00 in 10.0 mi North 9.2 mph 18.4 mph N/A   Clear
2:35 PM 52.9 °F - 28.0 °F 38% 30.00 in 10.0 mi NNW 8.1 mph - N/A   Clear
2:55 PM 52.3 °F - 27.0 °F 37% 30.00 in 10.0 mi North 12.7 mph - N/A   Clear
3:15 PM 50.9 °F - 27.1 °F 40% 30.01 in 10.0 mi North 8.1 mph - N/A   Clear
3:35 PM 50.9 °F - 26.6 °F 39% 30.01 in 10.0 mi North 5.8 mph - N/A   Clear
3:55 PM 51.6 °F - 26.6 °F 38% 30.02 in 10.0 mi NNW 6.9 mph - N/A   Clear
4:15 PM 50.9 °F - 26.1 °F 38% 30.02 in 10.0 mi North 5.8 mph - N/A   Clear
4:35 PM 49.6 °F - 26.8 °F 41% 30.03 in 10.0 mi North 3.5 mph - N/A   Clear
4:55 PM 49.6 °F - 26.8 °F 41% 30.05 in 10.0 mi Calm Calm - N/A   Clear
5:15 PM 46.4 °F - 27.1 °F 47% 30.05 in 10.0 mi Calm Calm - N/A   Clear
5:35 PM 43.2 °F 41.5 °F 27.0 °F 53% 30.05 in 10.0 mi NNE 3.5 mph - N/A   Clear
5:55 PM 39.6 °F - 28.4 °F 64% 30.06 in 10.0 mi Calm Calm - N/A   Clear
6:15 PM 41.0 °F - 28.2 °F 60% 30.08 in 10.0 mi Calm Calm - N/A   Clear
6:35 PM 38.5 °F - 28.2 °F 67% 30.08 in 10.0 mi Calm Calm - N/A   Clear
6:55 PM 39.6 °F - 27.3 °F 62% 30.09 in 10.0 mi Calm Calm - N/A   Clear
7:15 PM 32.9 °F - 27.9 °F 82% 30.10 in 10.0 mi Calm Calm - N/A   Clear
7:35 PM 35.8 °F - 27.3 °F 71% 30.11 in 10.0 mi Calm Calm - N/A   Clear
7:55 PM 33.8 °F - 26.6 °F 75% 30.11 in 10.0 mi Calm Calm - N/A   Clear
8:15 PM 30.9 °F 27.5 °F 26.2 °F 83% 30.11 in 10.0 mi NNW 3.5 mph - N/A   Clear
8:35 PM 31.1 °F 27.7 °F 26.6 °F 83% 30.11 in 10.0 mi North 3.5 mph - N/A   Clear
8:55 PM 30.0 °F - 25.5 °F 83% 30.12 in 10.0 mi Calm Calm - N/A   Clear
9:15 PM 30.0 °F 25.2 °F 25.9 °F 85% 30.12 in 10.0 mi NW 4.6 mph - N/A   Clear
9:35 PM 30.6 °F - 26.1 °F 83% 30.13 in 10.0 mi Calm Calm - N/A   Clear
9:55 PM 31.1 °F 27.7 °F 26.1 °F 82% 30.13 in 10.0 mi NW 3.5 mph - N/A   Clear
10:15 PM 31.1 °F 27.7 °F 25.9 °F 81% 30.14 in 10.0 mi NW 3.5 mph - N/A   Clear
10:35 PM 30.2 °F - 25.7 °F 83% 30.13 in 10.0 mi Calm Calm - N/A   Clear
10:55 PM 28.2 °F - 24.1 °F 84% 30.14 in 10.0 mi Calm Calm - N/A   Clear
11:15 PM 29.5 °F - 25.2 °F 84% 30.13 in 10.0 mi Calm Calm - N/A   Clear
11:35 PM 27.7 °F - 24.1 °F 86% 30.13 in 10.0 mi Calm Calm - N/A   Clear
11:55 PM 28.2 °F - 24.4 °F 86% 30.13 in 10.0 mi Calm Calm - N/A   Clear